GTI8801 CYSJ-EINN

Flight info

Callsign GTI8801
Flight time N/A
Altitude 41000
Route YYG DCT ELSIR/M086F410 DCT 50N050W 52N040W 53N030W 53N020W DCT MALOT/N0493F410 DCT GISTI DCT ERABI ERABI3D
Aircraft B77L/H-SDE1E2E3FGHIJ2J3J4J5M1RWXY/LB1D1

Departure

Time 2026-04-25 15:37
Airport Saint John Airport (CYSJ)

Arrival

Time N/A
Airport Shannon Airport (EINN)
Time Latitude Longitude Altitude Speed Heading
2026-04-25 15:28 45.32876 -65.89089 343 ft 0 kts 82°
2026-04-25 15:33 45.32876 -65.89088 342 ft 1 kts 83°
2026-04-25 15:33 45.32843 -65.89054 341 ft 10 kts 149°
2026-04-25 15:33 45.32733 -65.88855 334 ft 35 kts 120°
2026-04-25 15:33 45.32608 -65.88558 324 ft 31 kts 120°
2026-04-25 15:34 45.32447 -65.88336 320 ft 36 kts 149°
2026-04-25 15:34 45.32281 -65.88291 317 ft 18 kts 189°
2026-04-25 15:34 45.32114 -65.88226 316 ft 36 kts 162°
2026-04-25 15:34 45.32034 -65.88189 316 ft 37 kts 161°
2026-04-25 15:35 45.31410 -65.88496 318 ft 40 kts 212°
2026-04-25 15:35 45.31126 -65.88729 323 ft 50 kts 210°
2026-04-25 15:35 45.30779 -65.89030 321 ft 61 kts 211°
2026-04-25 15:36 45.30233 -65.89475 309 ft 10 kts 238°
2026-04-25 15:36 45.30258 -65.89476 310 ft 6 kts 37°
2026-04-25 15:36 45.30534 -65.89232 315 ft 94 kts 31°
2026-04-25 15:37 45.31318 -65.88550 490 ft 157 kts 27°
2026-04-25 15:37 45.32178 -65.87725 1587 ft 156 kts 30°
2026-04-25 15:37 45.33064 -65.86867 2651 ft 168 kts 30°
2026-04-25 15:37 45.34073 -65.85927 3708 ft 185 kts 29°
2026-04-25 15:38 45.35149 -65.84930 4910 ft 197 kts 30°
2026-04-25 15:38 45.36306 -65.83857 6108 ft 211 kts 30°
2026-04-25 15:38 45.37545 -65.82707 7342 ft 224 kts 31°
2026-04-25 15:38 45.38873 -65.81472 8491 ft 240 kts 32°
2026-04-25 15:39 45.40285 -65.80158 9648 ft 255 kts 32°
2026-04-25 15:39 45.41683 -65.78553 10768 ft 270 kts 47°
2026-04-25 15:39 45.42699 -65.76205 11761 ft 291 kts 60°
2026-04-25 15:39 45.43604 -65.73602 12771 ft 309 kts 61°
2026-04-25 15:40 45.44567 -65.70792 13778 ft 326 kts 61°
2026-04-25 15:40 45.44893 -65.69839 14117 ft 331 kts 61°
2026-04-25 15:40 45.46627 -65.64752 15914 ft 356 kts 61°
2026-04-25 15:40 45.47689 -65.61629 17404 ft 357 kts 61°
2026-04-25 15:41 45.48735 -65.58537 19207 ft 347 kts 60°
2026-04-25 15:41 45.49756 -65.55523 20682 ft 345 kts 60°
2026-04-25 15:41 45.50802 -65.52437 21685 ft 356 kts 61°
2026-04-25 15:41 45.51895 -65.49210 22654 ft 366 kts 61°
2026-04-25 15:42 45.52996 -65.45953 23671 ft 374 kts 61°
2026-04-25 15:42 45.54125 -65.42609 24697 ft 380 kts 61°
2026-04-25 15:42 45.55280 -65.39183 25691 ft 387 kts 62°
2026-04-25 15:42 45.56443 -65.35727 26667 ft 394 kts 62°
2026-04-25 15:43 45.57632 -65.32189 27635 ft 401 kts 63°
2026-04-25 15:43 45.58840 -65.28591 28567 ft 406 kts 63°
2026-04-25 15:43 45.60077 -65.24902 28960 ft 425 kts 63°
2026-04-25 15:43 45.61378 -65.21018 28967 ft 449 kts 63°
2026-04-25 15:44 45.62768 -65.16859 28966 ft 472 kts 63°
2026-04-25 15:44 45.64209 -65.12543 28967 ft 489 kts 63°
2026-04-25 15:44 45.67170 -65.03640 28959 ft 490 kts 63°
2026-04-25 15:45 45.70089 -64.94833 28956 ft 491 kts 63°
2026-04-25 15:45 45.72026 -64.88971 28958 ft 491 kts 63°
2026-04-25 15:46 45.75897 -64.77221 28968 ft 490 kts 63°
2026-04-25 15:46 45.78792 -64.68397 28972 ft 489 kts 63°
2026-04-25 15:47 45.81673 -64.59589 28974 ft 489 kts 63°
2026-04-25 15:47 45.84558 -64.50735 28971 ft 488 kts 63°
2026-04-25 15:48 45.87416 -64.41935 28966 ft 489 kts 63°
2026-04-25 15:48 45.90287 -64.33068 28965 ft 489 kts 64°
2026-04-25 15:49 45.93140 -64.24226 28965 ft 488 kts 64°
2026-04-25 15:49 45.95996 -64.15345 28964 ft 488 kts 64°
2026-04-25 15:50 45.98804 -64.06583 28961 ft 487 kts 63°
2026-04-25 15:50 46.00233 -64.02117 28960 ft 499 kts 63°
2026-04-25 15:50 46.01698 -63.97530 28962 ft 503 kts 63°
2026-04-25 15:51 46.04122 -63.89916 28952 ft 504 kts 63°
2026-04-25 15:51 46.07533 -63.79165 28949 ft 504 kts 63°
2026-04-25 15:52 46.10428 -63.70006 28950 ft 504 kts 63°
2026-04-25 15:52 46.13307 -63.60865 28953 ft 504 kts 63°
2026-04-25 15:53 46.16190 -63.51679 28946 ft 504 kts 63°
2026-04-25 15:53 46.19092 -63.42401 28947 ft 504 kts 63°
2026-04-25 15:54 46.21947 -63.33243 28941 ft 504 kts 64°
2026-04-25 15:54 46.24807 -63.24039 28935 ft 504 kts 63°
2026-04-25 15:55 46.27671 -63.14795 28936 ft 504 kts 63°
2026-04-25 15:55 46.30733 -63.05720 28932 ft 503 kts 60°
2026-04-25 15:56 46.33949 -62.96806 28930 ft 503 kts 60°
2026-04-25 15:56 46.37165 -62.87819 28927 ft 503 kts 60°
2026-04-25 15:57 46.40353 -62.78848 28913 ft 502 kts 60°
2026-04-25 15:57 46.43564 -62.69771 28909 ft 503 kts 60°
2026-04-25 15:58 46.46732 -62.60775 28903 ft 503 kts 60°
2026-04-25 15:58 46.49884 -62.51786 28891 ft 503 kts 60°
2026-04-25 15:59 46.53070 -62.42669 28891 ft 501 kts 59°
2026-04-25 15:59 46.54616 -62.38230 28886 ft 486 kts 59°
2026-04-25 15:59 46.56102 -62.33949 28879 ft 464 kts 60°
2026-04-25 16:00 46.57506 -62.29901 28878 ft 444 kts 60°